Location: Rowland
(34.5359°N, 79.2929°W)
Time: 15:50:21
(UTC+00:00)

A-11 Canister half - Pass Details

Date: 08 October 2022
Orbit: 1515 x 1684 km, 47.2° (Epoch: 06 December)

Event Time Altitude Azimuth Distance (km) Brightness Sun altitude
Exits shadow 08:15:29 16° 163° (SSE) 3,201 10.6 -37.6°
Drops below altitude 10° 08:17:06 10° 159° (SSE) 3,671 11.0 -37.3°
Sets 08:20:18 0° 153° (SSE) 4,661 11.6 -36.7°
